Location: Newark
(15.4608°S, 41.1635°W)
Time: 19:24:04
(UTC+00:00)

N. Korean satellite - Pass Details

Date: 27 June 2021
Orbit: 451 x 497 km, 97.2° (Epoch: 28 July)

Event Time Altitude Azimuth Distance (km) Brightness Sun altitude
Rises 07:47:32 0° 1° (N) 2,569 10.5 -19.6°
Reaches altitude 10° 07:49:39 10° 355° (N) 1,692 9.5 -19.1°
Maximum altitude 07:53:10 48° 280° (W) 658 6.8 -18.3°
Enters shadow 07:53:29 46° 262° (W) 672 6.8 -18.3°
